This is the latest recevied weather packets stored in our database for station/object KBTL-WX. If no packets are shown the sender has not sent any weather packets the latest 10 day(s).
| Time | Temp. | Humidity | Pressure | Rain* | Wind** | Luminosity | Snow |
|---|---|---|---|---|---|---|---|
| 1777863638 | 8.33° C | 72% | 975.6 hPa | 0 mm | - | - | - |
| 1777862713 | 8.33° C | 69% | 975.4 hPa | 0 mm | - | - | - |
| 1777861828 | 8.89° C | 74% | 975.5 hPa | 0 mm | - | - | - |
| 1777860913 | 8.89° C | 74% | 975.5 hPa | 0 mm | - | - | - |
| 1777860038 | 8.89° C | 74% | 975.5 hPa | 0 mm | - | - | - |
| 1777859113 | 9.44° C | 67% | 976 hPa | 0 mm | - | - | - |
| 1777858231 | 9.44° C | 67% | 976 hPa | 0 mm | - | - | - |
| 1777857312 | 9.44° C | 67% | 976 hPa | 0 mm | - | - | - |
| 1777856439 | 9.44° C | 67% | 976 hPa | 0 mm | - | - | - |
| 1777855513 | 10° C | 61% | 976.8 hPa | 0 mm | - | - | - |
| 1777854631 | 10° C | 66% | 977.1 hPa | 0 mm | - | - | - |
| 1777853713 | 10.56° C | 66% | 977.1 hPa | 0 mm | - | - | - |
| 1777852838 | 11.11° C | 66% | 977.1 hPa | 0 mm | - | - | - |
| 1777851914 | 11.11° C | 64% | 977.7 hPa | 0 mm | - | - | - |
| 1777851032 | 11.11° C | 59% | 977.2 hPa | 0 mm | - | - | - |
| 1777850113 | 12.22° C | 59% | 977.3 hPa | 0 mm | - | - | - |
| 1777849235 | 12.22° C | 59% | 977.3 hPa | 0 mm | - | - | - |
| 1777848314 | 12.22° C | 55% | 977.5 hPa | 0 mm | - | - | - |
| 1777847433 | 12.22° C | 54% | 977.8 hPa | 0 mm | - | - | - |
| 1777846513 | 12.78° C | 54% | 977.9 hPa | 0 mm | - | - | - |
| 1777845640 | 13.33° C | 54% | 977.9 hPa | 0 mm | - | - | - |
| 1777844714 | 12.78° C | 52% | 978.7 hPa | 0 mm | - | - | - |
| 1777843831 | 13.89° C | 51% | 978.6 hPa | 0 mm | - | - | - |
| 1777842913 | 14.44° C | 51% | 978.6 hPa | 0 mm | - | - | - |
| 1777842036 | 14.44° C | 51% | 978.6 hPa | 0 mm | - | - | - |
* Rain latest hour (hover to see other rain measurements)
** Current wind speed in m/s (hover to see current wind gust speed)